EW4287 Shelton CT US current weather conditions

sailwx.info

Last reported at 2019-Dec-09 12:00 UTC.
Time now 2019-Dec-09 12:24 UTC

Location: N 41°18' W 073°07'.
View on Google Maps.

See reports from other nearby stations

  
Tides and Currents Weather Stations Pressure Air Temp Water Temp Dewpoint Dewpoint Depression Visibility Wind Speed Wind Dir Waves Ship Positions
date/time (UTC)wind fromknots sea level pressurealtimeterstation pressurevisibilityair tempwater tempwave heightnotes
2019-Dec-09 12:00
2019-Dec-09 11:45
2019-Dec-09 11:30
2019-Dec-09 11:15
2019-Dec-09 11:00
2019-Dec-09 10:46
2019-Dec-09 10:31
2019-Dec-09 10:16
2019-Dec-09 10:03
2019-Dec-09 09:46
2019-Dec-09 09:31
2019-Dec-09 09:16
2019-Dec-09 09:01
2019-Dec-09 08:45
2019-Dec-09 08:31
2019-Dec-09 08:15
2019-Dec-09 08:00
2019-Dec-09 07:45 244 2.2
2019-Dec-09 07:30 256 3.3
2019-Dec-09 07:15 256 2.8
2019-Dec-09 07:00 256 3.3
2019-Dec-09 06:46 237 3.3
2019-Dec-09 06:32 237 3.3
2019-Dec-09 06:16 253 2.8
2019-Dec-09 06:01 250 2.2
2019-Dec-09 05:47 250 1.7
2019-Dec-09 05:32 250 2.2
2019-Dec-09 05:17 250 2.2
2019-Dec-09 05:01 257 2.2
2019-Dec-09 04:46 246 1.7
2019-Dec-09 04:31 229 1.1
2019-Dec-09 04:16 229 1.7
2019-Dec-09 04:01 225 1.1
2019-Dec-09 03:46 225 1.1
2019-Dec-09 03:30 225 1.7
2019-Dec-09 03:16 225 2.2
2019-Dec-09 03:01 225 2.2
2019-Dec-09 02:45 241 2.2
2019-Dec-09 02:30 243 2.2
2019-Dec-09 02:15 253 2.2
2019-Dec-09 02:00 224 1.7
2019-Dec-09 01:46 223 1.7
2019-Dec-09 01:30 161 1.7
2019-Dec-09 01:15 162 1.7
2019-Dec-09 01:00 190 1.7
2019-Dec-09 00:45 131 1.1
2019-Dec-09 00:30 199 1.1
2019-Dec-09 00:15 130 0.6
2019-Dec-09 00:00 228 0.6
2019-Dec-08 23:45 190 -0.0
2019-Dec-08 23:30 165 -0.0
2019-Dec-08 23:15 231 -0.0
2019-Dec-08 23:00 231 -0.0
2019-Dec-08 22:45 314 0.6
2019-Dec-08 22:30 193 0.6
2019-Dec-08 22:15 150 0.6
2019-Dec-08 22:00 164 0.6
2019-Dec-08 21:46 219 0.6
2019-Dec-08 21:31 193 0.6
2019-Dec-08 21:17 209 0.6
2019-Dec-08 21:02 159 0.6
2019-Dec-08 20:47 163 0.6
2019-Dec-08 20:31 176 0.6
2019-Dec-08 20:17 102 1.1
2019-Dec-08 20:01 195 1.1
2019-Dec-08 19:46 146 1.1
2019-Dec-08 19:31 158 1.1
2019-Dec-08 19:16 133 1.1
2019-Dec-08 19:02 195 1.1
2019-Dec-08 18:47 177 0.6
2019-Dec-08 18:31 240 0.6
2019-Dec-08 18:16 151 0.6
2019-Dec-08 18:02 181 0.6
2019-Dec-08 17:46 134 0.6
2019-Dec-08 17:31 255 0.6
2019-Dec-08 17:15 110 -0.0
2019-Dec-08 17:01 074 0.6
2019-Dec-08 16:46 264 0.6
2019-Dec-08 16:30 210 0.6
2019-Dec-08 16:16 152 0.6
2019-Dec-08 16:00 073 -0.0
2019-Dec-08 15:45 200 -0.0
2019-Dec-08 15:30 170 -0.6
2019-Dec-08 15:15 077 -1.7
2019-Dec-08 15:00 076 -2.8
2019-Dec-08 14:45 123 -3.3
2019-Dec-08 14:30 116 -3.9
2019-Dec-08 14:15 116 -5.0
2019-Dec-08 14:00 117 -5.6
2019-Dec-08 13:48 118 -6.1
2019-Dec-08 13:32 219 -6.7
2019-Dec-08 13:16 219 -7.2
2019-Dec-08 13:02 219 -8.3
2019-Dec-08 12:46
2019-Dec-08 12:31
2019-Dec-08 12:16
2019-Dec-08 12:01
2019-Dec-08 11:45
2019-Dec-08 11:30
2019-Dec-08 11:16
2019-Dec-08 11:00
2019-Dec-08 10:46
2019-Dec-08 10:30
2019-Dec-08 10:15
2019-Dec-08 10:00
2019-Dec-08 09:45
2019-Dec-08 09:33
2019-Dec-08 09:17
2019-Dec-08 09:01
2019-Dec-08 08:47
2019-Dec-08 08:31
2019-Dec-08 08:17
2019-Dec-08 08:01
2019-Dec-08 07:46 219 -7.8
2019-Dec-08 07:30 219 -7.8
2019-Dec-08 07:15 219 -7.2
2019-Dec-08 07:00 219 -7.2
2019-Dec-08 06:46 219 -7.2
2019-Dec-08 06:31 219 -7.2
2019-Dec-08 06:15 219 -7.2
2019-Dec-08 06:00 219 -7.2
2019-Dec-08 05:45 219 -6.7
2019-Dec-08 05:30 219 -6.7
2019-Dec-08 05:15 219 -6.7
2019-Dec-08 05:00 219 -6.7
2019-Dec-08 04:45 219 -6.1
2019-Dec-08 04:30 219 -6.1
2019-Dec-08 04:15 219 -6.1
2019-Dec-08 04:01 219 -6.1
2019-Dec-08 03:47 219 -6.1
2019-Dec-08 03:31 219 -5.6
2019-Dec-08 03:17 219 -5.6
2019-Dec-08 03:01 219 -5.0
2019-Dec-08 02:47 219 -5.0
2019-Dec-08 02:31 219 -5.0
2019-Dec-08 02:16 219 -4.4
2019-Dec-08 02:03 219 -4.4
2019-Dec-08 01:47 219 -4.4
2019-Dec-08 01:31 219 -4.4
2019-Dec-08 01:16 219 -3.9
2019-Dec-08 01:01 222 -3.9
2019-Dec-08 00:47 222 -3.9
2019-Dec-08 00:31 222 -3.9
2019-Dec-08 00:15 222 -3.3
2019-Dec-08 00:01 222 -3.3
2019-Dec-07 23:46 266 -3.3
2019-Dec-07 23:31 266 -3.3
2019-Dec-07 23:15 266 -2.8
2019-Dec-07 23:00 266 -2.8
2019-Dec-07 22:46 266 -2.8
2019-Dec-07 22:31 266 -2.2
2019-Dec-07 22:15 266 -2.2
2019-Dec-07 22:00 266 -1.7
2019-Dec-07 21:45 266 -1.1
2019-Dec-07 21:31 293 -1.1
2019-Dec-07 21:16 297 -0.6
2019-Dec-07 21:00 295 -0.0
2019-Dec-07 20:45 274 -0.0
2019-Dec-07 20:30 236 0.6
2019-Dec-07 20:15 219 0.6
2019-Dec-07 20:00 315 0.6
2019-Dec-07 19:45 293 0.6
2019-Dec-07 19:30 214 0.6
2019-Dec-07 19:15 297 1.1
2019-Dec-07 19:00 328 1.1
2019-Dec-07 18:45 224 1.7
2019-Dec-07 18:30 316 1.7
2019-Dec-07 18:15 330 1.7
2019-Dec-07 18:02 191 1.7
2019-Dec-07 17:47 270 1.7
2019-Dec-07 17:32 297 1.7
2019-Dec-07 17:16 311 1.7
2019-Dec-07 17:02 344 1.7
2019-Dec-07 16:46 296 1.7
2019-Dec-07 16:33 279 1.1
2019-Dec-07 16:16 314 1.1
2019-Dec-07 16:02 356 1.1
2019-Dec-07 15:46 099 2.2
2019-Dec-07 15:31 260 1.7
2019-Dec-07 15:16 287 1.1
2019-Dec-07 15:01 311 0.6
2019-Dec-07 14:46 310 -0.0
2019-Dec-07 14:31 307 -0.6
2019-Dec-07 14:16 240 -1.1
2019-Dec-07 14:01 287 -1.7
2019-Dec-07 13:46 256 -2.8
2019-Dec-07 13:31 256 -3.3
2019-Dec-07 13:16 256 -3.3
2019-Dec-07 13:01 256 -3.9
2019-Dec-07 12:45
2019-Dec-07 12:30
2019-Dec-07 12:15
2019-Dec-07 12:00